TimeCDT,TemperatureF,Dew PointF,Humidity,Sea Level PressureIn,VisibilityMPH,Wind Direction,Wind SpeedMPH,Gust SpeedMPH,PrecipitationIn,Events,Conditions,WindDirDegrees,DateUTC
12:54 AM,54.0,50.0,86,30.18,10.0,Calm,Calm,-,N/A,,Clear,0,2013-08-15 05:54:00
1:54 AM,52.0,48.0,86,30.17,10.0,Calm,Calm,-,N/A,,Clear,0,2013-08-15 06:54:00
2:54 AM,50.0,48.0,93,30.17,10.0,Calm,Calm,-,N/A,,Clear,0,2013-08-15 07:54:00
3:54 AM,50.0,46.9,89,30.17,10.0,Calm,Calm,-,N/A,,Clear,0,2013-08-15 08:54:00
4:54 AM,51.1,46.9,86,30.18,10.0,Calm,Calm,-,N/A,,Clear,0,2013-08-15 09:54:00
5:54 AM,50.0,46.9,89,30.18,10.0,Calm,Calm,-,0.01,,Clear,0,2013-08-15 10:54:00
6:54 AM,52.0,48.0,86,30.19,10.0,Calm,Calm,-,N/A,,Clear,0,2013-08-15 11:54:00
7:54 AM,55.9,52.0,87,30.19,10.0,Calm,Calm,-,N/A,,Clear,0,2013-08-15 12:54:00
8:54 AM,62.1,54.0,75,30.20,10.0,Calm,Calm,-,N/A,,Clear,0,2013-08-15 13:54:00
9:54 AM,66.0,52.0,60,30.20,10.0,Variable,3.5,-,N/A,,Clear,0,2013-08-15 14:54:00
10:54 AM,70.0,48.9,47,30.20,10.0,Variable,3.5,-,N/A,,Clear,0,2013-08-15 15:54:00
11:54 AM,71.1,48.9,45,30.19,10.0,East,6.9,-,N/A,,Clear,90,2013-08-15 16:54:00
12:54 PM,71.1,48.9,45,30.17,10.0,East,9.2,-,N/A,,Clear,80,2013-08-15 17:54:00
1:54 PM,73.0,50.0,44,30.15,10.0,NE,6.9,-,N/A,,Scattered Clouds,40,2013-08-15 18:54:00
2:54 PM,73.9,48.9,41,30.13,10.0,East,8.1,-,N/A,,Partly Cloudy,90,2013-08-15 19:54:00
3:54 PM,73.0,46.9,39,30.12,10.0,East,6.9,-,N/A,,Partly Cloudy,90,2013-08-15 20:54:00
4:54 PM,73.0,48.0,41,30.12,10.0,East,6.9,-,N/A,,Clear,90,2013-08-15 21:54:00
5:54 PM,72.0,50.0,46,30.12,10.0,ESE,4.6,-,N/A,,Clear,120,2013-08-15 22:54:00
6:54 PM,70.0,53.1,55,30.11,10.0,Calm,Calm,-,N/A,,Clear,0,2013-08-15 23:54:00
7:54 PM,66.0,55.9,70,30.12,10.0,ESE,3.5,-,N/A,,Clear,120,2013-08-16 00:54:00
8:54 PM,63.0,54.0,72,30.12,10.0,Calm,Calm,-,N/A,,Clear,0,2013-08-16 01:54:00
9:54 PM,62.1,55.9,80,30.14,10.0,Calm,Calm,-,N/A,,Clear,0,2013-08-16 02:54:00
10:54 PM,62.1,55.9,80,30.14,10.0,Calm,Calm,-,N/A,,Clear,0,2013-08-16 03:54:00